[[{"header":{"parameterUnit":"m.s-1","parameterCategory":1,"la1":30.2992,"la2":30.254,"lo1":-89.0895,"lo2":-89.0443,"dy":0.0025,"dx":0.0025,"nx":19,"ny":19,"refTime":"2026-05-08T03:00:00:Z","depth":0,"parameterNumber":2,"parameterNumberName":"U-component_of_WINDS"},"data":[0,0,0,-1.7616,-1.7618,-1.772,-1.772,-1.7858,-1.7859,0,0,0,0,0,0,0,0,0,0,0,-1.759,-1.7591,-1.7616,-1.7618,-1.772,-1.772,-1.7857,-1.7859,0,0,0,0,0,0,0,0,0,0,0,-1.7589,-1.759,-1.7592,-1.7619,-1.772,-1.772,-1.7857,-1.7778,0,0,0,0,0,0,0,0,0,0,-1.7678,-1.7657,-1.759,-1.7592,-1.7619,-1.772,-1.772,-1.7774,-1.7783,-1.7814,0,-1.7843,0,-1.7853,-1.7869,-1.7869,0,0,0,-1.7616,-1.765,-1.7674,-1.7592,-1.762,-1.772,-1.7673,-1.7779,-1.7789,-1.7826,-1.7845,-1.785,-1.7855,-1.7869,-1.787,-1.806,-1.8061,0,0,-1.761,-1.761,-1.7667,-1.768,-1.7665,-1.767,-1.7676,-1.7785,-1.7806,-1.7845,-1.7853,-1.7858,-1.787,-1.7872,-1.8059,-1.806,0,0,0,-1.7596,-1.7607,-1.7627,-1.7675,-1.7693,-1.7673,-1.768,-1.7801,-1.7807,-1.7854,-1.7859,-1.7871,-1.7873,-1.8058,-1.8059,-1.8111,0,0,0,-1.7592,-1.7598,-1.7625,-1.7626,-1.7691,-1.7748,-1.7694,-1.78,-1.7812,-1.7859,-1.7871,-1.7874,-1.8057,-1.8059,-1.8107,-1.8136,0,0,0,-1.7582,-1.7597,-1.7613,-1.7626,-1.767,-1.7746,-1.7759,-1.7803,-1.7815,-1.7869,-1.7875,-1.8056,-1.8058,-1.8103,-1.813,-1.8187,0,0,0,-1.7571,-1.7657,-1.7614,-1.7712,-1.7669,-1.7776,-1.7758,-1.7838,-1.7891,-1.7872,-1.8057,-1.8059,-1.8102,-1.8127,-1.8183,-1.8236,-1.8258,0,0,-1.768,-1.767,-1.7728,-1.7692,-1.7807,-1.7761,-1.7884,-1.7931,-1.7936,-1.8018,-1.8023,-1.8108,-1.813,-1.8186,-1.8374,-1.8391,0,0,0,-1.7763,-1.7804,-1.7835,-1.7884,-1.7921,-1.7956,-1.7985,-1.8002,-1.8072,-1.7978,-1.8143,-1.8156,-1.8189,-1.8214,-1.8229,-1.8258,-1.807,-1.807,-1.807,-1.792,-1.792,-1.8016,-1.8029,-1.8076,-1.8104,-1.8143,-1.8171,-1.8158,-1.8197,-1.8222,-1.8336,-1.8366,-1.8377,-1.8407,-1.8248,-1.8248,-1.8249,-1.8249,-1.8082,-1.8142,-1.812,-1.8206,-1.8206,-1.8278,-1.8307,-1.8295,-1.8363,-1.8317,-1.8346,-1.8299,-1.8395,-1.8422,-1.8253,-1.8252,-1.8251,-1.8251,-1.8251,-1.8187,-1.8216,-1.8234,-1.8305,-1.8359,-1.8368,-1.8433,-1.843,-1.8428,-1.8457,-1.8484,-1.8483,-1.8484,-1.8469,-1.847,-1.847,-1.847,-1.8471,-1.8471,-1.829,-1.8309,-1.8364,-1.841,-1.8441,-1.8481,-1.8508,-1.8538,-1.8571,-1.8564,-1.8564,-1.8549,-1.8403,-1.8369,-1.8477,-1.8476,-1.8475,-1.8475,-1.8474,-1.8459,-1.842,-1.8505,-1.8536,-1.8589,-1.8643,-1.8637,-1.8699,-1.8723,-1.8756,-1.8733,-1.8625,-1.8616,-1.8604,-1.8575,-1.8731,-1.8731,-1.8731,-1.8731,-1.855,-1.8543,-1.863,-1.8679,-1.8727,-1.8729,-1.8827,-1.8848,-1.8864,-1.8879,-1.8855,-1.8815,-1.8803,-1.8801,-1.8785,-1.8759,-1.8958,-1.8958,-1.8958,-1.8654,-1.8652,-1.8736,-1.8749,-1.879,-1.8825,-1.8917,-1.8975,-1.8984,-1.8967,-1.8891,-1.8881,-1.8817,-1.8796,-1.8781,-1.8757,-1.8707,0,0]},{"header":{"parameterUnit":"m.s-1","parameterCategory":1,"la1":30.2992,"la2":30.254,"lo1":-89.0895,"lo2":-89.0443,"dy":0.0025,"dx":0.0025,"nx":19,"ny":19,"refTime":"2026-05-08T03:00:00:Z","depth":0,"parameterNumber":3,"parameterNumberName":"V-component_of_WINDS"},"data":[0,0,0,-4.0988,-4.099,-4.1095,-4.1096,-4.1226,-4.1227,0,0,0,0,0,0,0,0,0,0,0,-4.0957,-4.0958,-4.0987,-4.099,-4.1095,-4.1096,-4.1226,-4.1227,0,0,0,0,0,0,0,0,0,0,0,-4.0956,-4.0958,-4.0959,-4.099,-4.1095,-4.1096,-4.1225,-4.1147,0,0,0,0,0,0,0,0,0,0,-4.1045,-4.1018,-4.0957,-4.0959,-4.0991,-4.1095,-4.1096,-4.1143,-4.1152,-4.1177,0,-4.1203,0,-4.1218,-4.1236,-4.1236,0,0,0,-4.0989,-4.1011,-4.1039,-4.0959,-4.0992,-4.1095,-4.1047,-4.1148,-4.1158,-4.1189,-4.1205,-4.121,-4.122,-4.1237,-4.1237,-4.1396,-4.1397,0,0,-4.0983,-4.0976,-4.1032,-4.1046,-4.1033,-4.1044,-4.1051,-4.1154,-4.117,-4.1206,-4.1213,-4.1222,-4.1238,-4.1239,-4.1395,-4.1396,0,0,0,-4.0967,-4.0971,-4.0997,-4.104,-4.106,-4.1047,-4.1055,-4.1165,-4.1174,-4.1215,-4.1223,-4.1238,-4.124,-4.1395,-4.1396,-4.1429,0,0,0,-4.0963,-4.0962,-4.0995,-4.0991,-4.1058,-4.1115,-4.1064,-4.1167,-4.1179,-4.1223,-4.1238,-4.1241,-4.1394,-4.1395,-4.1426,-4.1445,0,0,0,-4.095,-4.0961,-4.0977,-4.0991,-4.1036,-4.1113,-4.1128,-4.117,-4.1185,-4.1236,-4.1242,-4.1393,-4.1395,-4.1423,-4.1441,-4.1483,0,0,0,-4.0932,-4.1004,-4.0977,-4.106,-4.1035,-4.1134,-4.1128,-4.1201,-4.1249,-4.1239,-4.1394,-4.1396,-4.1423,-4.1438,-4.1481,-4.1517,-4.1533,0,0,-4.1018,-4.1014,-4.1063,-4.1042,-4.1144,-4.1118,-4.1224,-4.1274,-4.1284,-4.1357,-4.1361,-4.1427,-4.144,-4.1483,-4.1622,-4.1634,0,0,0,-4.1087,-4.1123,-4.1151,-4.1198,-4.124,-4.1276,-4.1311,-4.1329,-4.1392,-4.1322,-4.1455,-4.1463,-4.1488,-4.1506,-4.1516,-4.1537,-4.1404,-4.1404,-4.1404,-4.1197,-4.1208,-4.129,-4.1313,-4.1359,-4.1394,-4.143,-4.146,-4.1457,-4.1488,-4.151,-4.1593,-4.1614,-4.1622,-4.1643,-4.1531,-4.1531,-4.1531,-4.1532,-4.1323,-4.1373,-4.1368,-4.1446,-4.1456,-4.1519,-4.1555,-4.1551,-4.1609,-4.1578,-4.1601,-4.1565,-4.1635,-4.1654,-4.1534,-4.1534,-4.1533,-4.1533,-4.1533,-4.1395,-4.1421,-4.1443,-4.1512,-4.1562,-4.1582,-4.1639,-4.1646,-4.1652,-4.1675,-4.1697,-4.1697,-4.1695,-4.1685,-4.1686,-4.1686,-4.1686,-4.1687,-4.1687,-4.146,-4.1484,-4.1533,-4.1583,-4.1613,-4.1654,-4.1689,-4.1718,-4.1751,-4.1751,-4.1751,-4.1743,-4.1641,-4.1613,-4.1691,-4.169,-4.169,-4.1689,-4.1689,-4.158,-4.1554,-4.163,-4.166,-4.1718,-4.1766,-4.1775,-4.1833,-4.1858,-4.1885,-4.1872,-4.1796,-4.1791,-4.1783,-4.176,-4.1871,-4.1871,-4.1871,-4.1871,-4.164,-4.1639,-4.1717,-4.1765,-4.1813,-4.1828,-4.1908,-4.1936,-4.1959,-4.1974,-4.1959,-4.1931,-4.1922,-4.1922,-4.1911,-4.189,-4.2032,-4.2032,-4.2032,-4.1714,-4.1718,-4.1787,-4.1813,-4.1858,-4.1895,-4.1971,-4.2023,-4.2044,-4.2039,-4.1986,-4.1979,-4.1933,-4.1917,-4.1909,-4.1892,-4.1854,0,0]}]]